{"data":{"norad_id":62331,"intl_designator":"2024-240J","name":"HULIANWANG DIGUI-09","alt_names":[],"object_type":"PAYLOAD","status":"ACTIVE","operator":null,"country":"PRC","launch_date":"2024-12-16","launch_site_code":"WSC","launch_vehicle":null,"mission":null,"orbit_class":"UNKNOWN","rcs_meters":null,"size_class":null,"mass_kg":null,"dimensions":null,"purposes":[],"wikipedia_slug":null,"has_3d_model":false,"image_url":null,"decayed_at":null,"tle_current":{"epoch":"2026-09-22T20:32:32.589600Z","epoch_age_seconds":108506,"freshness":"FRESH","line1":"1 62331U 24240J   26265.85593275  .00000051  00000+0  84743-4 0  9997","line2":"2 62331  86.4982 310.3289 0001647  91.3032 268.8291 13.24412881 85560","mean_motion":13.24412881,"eccentricity":0.0001647,"inclination_deg":86.4982,"raan_deg":310.3289,"arg_perigee_deg":91.3032,"mean_anomaly_deg":268.8291,"bstar":8.4743e-5,"rev_number":8556,"period_min":108.72742334798,"perigee_km":1166.6684081645,"apogee_km":1169.1540764556,"semimajor_km":7546.0482423101,"source":"CELESTRAK","updated_at":"2026-09-23T09:00:21.385984Z"}}}